Regional Weather Roundup
Issued by NWS Portland, ME

Home | Current Version | Previous Version | Text Only | Print | Product List | Glossary On
Versions: 1 2 3 4 5 6 7 8 9 10 11 12 13 14 15 16 17 18 19 20 21 22 23 24 25 26 27 28 29 30 31 32 33 34 35 36 37 38 39 40 41 42 43 44 45 46 47 48 49 50
000
ASUS41 KGYX 230810
RWRGYX
WEATHER ROUNDUP FOR MAINE AND NEW HAMPSHIRE
NATIONAL WEATHER SERVICE GRAY ME
400 AM EDT SAT MAY 23 2015

MEZ002-005-006-010-012-015-018-020-021-024-026-027-029-230900-
MAINE

CITY           SKY/WX    TMP DP  RH WIND       PRES   REMARKS
PORTLAND       CLEAR     42  19  39 NW13      30.14R
BAR HARBOR     CLOUDY    43  34  70 NW9G22    30.02R
WISCASSET      PTCLDY    41  20  43 W9        30.12R
ROCKLAND       MOCLDY    41  19  42 NW17G24   30.06R
FRYEBURG       CLEAR     39  18  42 W10G18    30.13S
LEWISTONAUBURN CLEAR     37  18  44 W5        30.11F
AUGUSTA        CLEAR     37  19  48 W12G17    30.09R
WATERVILLE     CLEAR     37  18  44 W12G17    30.05S
BANGOR         MOCLDY    39  27  62 W9        30.04R
GREENVILLE       N/A     31  20  63 VRB6      29.97R
MILLINOCKET    PTCLDY    40  27  59 W13G23    29.98R
HOULTON        MIX PCPN  37  35  92 CALM      29.91S
PRESQUE ISLE   CLOUDY    36  30  80 W10       29.91R
FRENCHVILLE    CLOUDY    34  28  79 NW8       29.89R
CARIBOU        LGT RAIN  36  33  89 W6        29.90R
$$

NHZ002-005-008-009-011-012-014-230900-
NEW HAMPSHIRE

CITY           SKY/WX    TMP DP  RH WIND       PRES   REMARKS
PORTSMOUTH     PTCLDY    43  20  38 NW12G22   30.14R
ROCHESTER      CLEAR     41  20  43 W6        30.15R
NASHUA         CLEAR     43  27  53 NW13G21   30.19R
MANCHESTER     PTCLDY    43  25  49 NW10      30.17R
CONCORD        CLEAR     41  23  48 NW13      30.17R
LACONIA        CLEAR     39  19  45 W6        30.15S
PLYMOUTH       FAIR      37  27  67 N5        30.16R
BERLIN         CLEAR     34  19  54 W8        30.11R
WHITEFIELD     CLEAR     31  22  69 CALM      30.15R
JAFFREY        PTCLDY    38  26  62 VRB5      30.18R
KEENE          CLEAR     39  28  65 N6        30.20R
LEBANON        CLEAR     32  26  78 CALM      30.19S
MT WASHINGTON  FOG       10  10 100 NW58        N/A  VSB 1/16WCI -18
$$

VTZ005-007-008-230900-
VERMONT

CITY           SKY/WX    TMP DP  RH WIND       PRES   REMARKS
ST JOHNSBURY     N/A     36  22  56 MISG      30.16R
MONTPELIER     MOCLDY    33  20  58 NW5       30.21S
BURLINGTON     CLEAR     39  21  48 W7        30.23R
$$

MAZ007-012-024-CTZ003-RIZ002-NYZ038-NYZ072-230900-
SOUTHERN NEW ENGLAND AND NY

CITY           SKY/WX    TMP DP  RH WIND       PRES   REMARKS
BOSTON         CLEAR     47  28  47 NW16G24   30.18R
WORCESTER      CLEAR     42  30  62 N7        30.17R
NANTUCKET      CLEAR     55  27  34 NW15G26   30.12R
PROVIDENCE     CLEAR     49  27  42 NW8       30.18R
HARTFORD       CLEAR     45  28  51 NW9       30.22R
ALBANY         CLEAR     40  23  50 NW6       30.27R
NEW YORK CITY  CLEAR     53  26  35 NW14      30.27R
$$

ANZ081-ANZ082-ANZ150-NHZ014-MEZ023>029-230900-
COASTAL MARINE OBSERVATIONS

STATION/POSITION TIME  TEMP    WIND        PRES    WAVE
                       AIR SEA DIR/SP/G            HT/PER
                 (UTC) (F)     (DEG/KT/KT) (MB)    (FT/S)
MOUNT DESERT ROC 0800   44     290/ 18/ 21   N/A
MATINICUS ROCK   0800   43     300/ 32/ 36   N/A
ISLE OF SHOALS   0800   45     300/ 23/ 25   N/A
JEFFREYS LEDGE   0703      47                N/A     2/ 3
CASHES LEDGE BUO 0750   47 49                N/A     4/ 4
GEORGES BANK BUO 0750   49 46  300/ 12/ 14   N/A     5/ 8
$$

.............KEY..............
   WCI - WIND CHILL
   TC  - TEMPERATURE IN CELSIUS
   VSB - VISIBILITY IN MILES
   HX  - HEAT INDEX
   FAIR- INDICATES FEW OR NO CLOUDS BELOW 12,000 FT, WITH NO
         SIGNIFICANT WEATHER AND/OR OBSTRUCTIONS TO VISIBILITY.




USA.gov is the U.S. government's official web portal to all federal, state and local government web resources and services.